Temp
61 61 60 60 60 60 60 60 60 60 60 60 61 61 61 60 60 62 58 67 67 70 71 72 73 72 73 66 69 68 55 51 54 59 63 73 72 81 86 82 86 90 87 90 93
60 60 60 60 60 60 60 60 60 60 60 60 60 60 60 60 56 58 70 71 71 70 71 69 69 71 62 63 63 58 50 53 63 67 65 71 72 75 77 77 79 83 89 94 93
60 60 60 60 60 59 59 59 59 60 60 60 60 60 60 60 55 64 72 71 71 70 71 72 71 68 58 61 61 59 55 63 66 70 72 70 71 76 73 70 75 76 82 87 89
59 59 59 59 59 59 59 59 59 59 60 60 59 60 60 57 47 68 73 71 71 71 70 70 68 59 55 55 63 53 64 67 67 71 70 67 71 71 72 73 80 82 83 86 86
58 59 59 59 58 58 59 59 59 59 59 59 59 60 57 54 59 71 73 71 71 71 69 67 62 59 53 58 61 56 61 66 67 66 65 70 68 68 70 78 81 82 83 81 80
58 58 58 58 58 58 58 58 58 58 58 58 59 59 55 48 74 74 73 71 73 70 67 67 63 66 59 58 55 60 63 64 65 63 63 63 65 66 72 77 78 79 78 80 79
58 58 58 58 58 58 58 57 57 57 58 59 60 60 56 56 77 74 75 71 74 75 70 72 71 64 61 55 62 62 55 60 62 62 62 66 60 62 71 74 73 75 77 79 80
58 57 57 57 57 58 58 57 57 58 60 61 61 59 51 74 74 75 76 74 77 77 75 74 73 62 57 62 60 54 54 44 56 62 65 61 50 64 71 71 69 73 76 78 77
57 57 57 57 57 57 57 56 57 59 62 61 56 54 54 74 73 78 77 75 76 76 75 81 69 58 58 50 46 49 42 45 52 62 62 58 53 65 71 69 69 70 73 75 76
57 57 56 56 57 56 56 56 59 58 61 66 66 53 63 68 76 80 79 78 72 71 68 66 59 50 49 44 35 42 44 48 50 59 58 54 54 62 66 69 68 70 71 72 75
57 56 56 56 56 56 55 59 54 52 56 58 63 65 69 76 80 76 79 74 71 64 53 60 52 45 48 52 53 50 46 46 53 61 55 53 54 58 64 64 63 68 70 71 73
57 56 56 56 56 55 51 56 66 65 55 69 71 71 76 74 67 73 78 64 61 52 58 53 48 56 60 59 53 50 46 46 54 60 57 57 55 58 63 64 64 64 66 71 72
56 56 56 56 55 53 60 67 74 70 52 64 73 71 71 72 65 66 73 67 59 54 53 48 54 62 60 54 51 50 47 48 48 56 58 54 50 53 62 65 67 68 68 69 72
55 55 56 55 56 64 65 73 73 68 43 58 65 71 73 70 62 76 76 67 59 52 53 51 58 57 55 51 52 44 55 55 52 47 37 50 34 48 54 57 61 65 67 68 70
55 55 55 55 54 59 70 72 69 63 29 65 67 77 73 64 67 70 78 66 55 54 55 49 52 51 49 52 57 50 58 51 52 47 42 45 35 46 51 52 56 62 66 69 71
55 55 55 62 54 65 73 72 64 43 33 58 65 62 61 65 66 70 68 68 65 55 55 53 61 58 55 58 59 60 54 50 47 42 32 44 40 42 47 53 59 62 66 69 72
55 55 52 64 60 74 72 62 41 35 60 54 54 59 57 57 59 61 56 50 45 40 38 48 51 57 62 54 57 51 41 29 28 26 29 46 38 41 50 55 58 62 65 69 72
54 53 57 68 70 71 64 50 34 53 53 60 57 57 54 57 57 54 49 43 52 48 40 32 34 52 58 51 44 41 43 30 25 25 29 44 31 38 54 59 61 64 67 71 70
53 62 63 67 71 67 55 39 41 51 57 54 55 49 49 53 52 49 46 46 50 47 37 35 36 51 55 58 54 45 35 45 33 35 31 37 46 53 59 59 61 62 66 69 70
51 56 64 74 72 62 49 46 50 60 60 57 45 50 43 47 46 45 44 51 47 51 47 41 32 48 52 55 55 49 51 33 35 27 25 35 40 40 48 52 58 59 63 67 72
52 56 68 75 69 55 41 47 57 64 63 55 50 46 47 44 46 43 46 51 49 46 47 42 36 38 44 43 42 43 39 40 39 35 28 26 33 48 48 51 51 55 63 62 66
53 51 69 71 53 51 46 55 56 61 63 59 55 51 47 46 42 42 43 47 50 47 39 42 36 30 37 49 52 48 42 42 32 31 33 33 33 52 50 52 55 56 62 61 64
49 55 69 65 42 44 53 57 60 58 58 56 53 54 54 44 36 44 47 53 52 48 40 40 34 28 32 40 45 40 42 44 40 38 33 30 33 53 53 54 55 54 57 59 60
51 48 56 56 56 48 48 51 53 62 59 59 55 54 48 44 45 39 44 50 51 48 52 46 33 32 28 34 39 35 40 44 38 32 35 34 39 45 48 49 55 57 56 57 62
54 49 52 43 47 49 51 52 51 50 57 56 50 51 47 39 41 41 44 46 51 52 45 40 32 35 37 39 40 39 40 41 40 40 32 39 41 46 47 49 53 57 57 58 62
50 48 51 48 51 50 50 48 50 53 51 50 47 52 47 39 40 37 42 43 41 46 41 39 32 36 34 42 44 39 41 43 46 45 44 45 43 51 52 53 55 55 56 57 53
56 56 49 48 48 48 47 49 51 52 54 56 53 46 45 46 49 50 50 49 47 38 34 33 32 32 28 41 40 33 37 40 43 47 46 40 46 52 47 50 49 51 53 53 55
MSLP
1019.11 1018.69 1018.27 1017.85 1017.45 1017.05 1016.66 1016.30 1016.03 1015.70 1015.40 1015.15 1014.89 1014.62 1014.30 1013.91 1013.21 1012.28 1011.76 1010.28 1010.16 1010.18 1010.04 1009.78 1009.32 1008.93 1008.73 1008.95 1008.68 1008.54 1008.74 1007.91 1007.43 1006.58 1005.34 1003.83 1002.74 1001.14 1000.82 1000.15 998.94 997.63 997.80 998.09 998.39
1019.15 1018.70 1018.25 1017.77 1017.31 1016.87 1016.45 1016.06 1015.72 1015.44 1015.18 1014.93 1014.68 1014.41 1014.13 1013.74 1012.92 1011.23 1010.04 1009.80 1010.00 1009.94 1009.84 1009.50 1008.88 1008.60 1008.91 1008.46 1008.52 1008.53 1008.17 1007.53 1007.02 1006.20 1005.30 1004.13 1003.21 1002.26 1001.86 1000.99 1000.12 999.09 997.56 997.98 998.24
1019.22 1018.65 1018.16 1017.72 1017.24 1016.79 1016.36 1015.95 1015.59 1015.24 1014.95 1014.69 1014.46 1014.14 1013.89 1013.55 1012.46 1009.93 1009.35 1009.72 1009.88 1009.88 1010.00 1009.62 1008.95 1008.60 1008.74 1008.37 1008.30 1008.14 1007.80 1007.47 1006.66 1005.90 1005.30 1004.57 1003.50 1002.83 1002.53 1001.54 1001.64 1001.23 1000.16 998.46 998.50
1019.30 1018.66 1018.05 1017.57 1017.13 1016.67 1016.23 1015.80 1015.42 1015.16 1014.96 1014.71 1014.42 1014.13 1013.67 1013.50 1012.08 1009.74 1009.81 1010.04 1010.04 1009.95 1009.90 1009.34 1008.92 1008.86 1008.96 1008.74 1007.94 1007.83 1007.14 1006.68 1006.16 1005.64 1005.14 1004.70 1004.16 1003.02 1002.87 1001.93 1001.91 1001.38 1000.98 999.07 998.82
1019.21 1018.61 1018.00 1017.42 1016.92 1016.47 1016.00 1015.61 1015.24 1015.02 1014.87 1014.71 1014.47 1014.33 1013.60 1012.85 1010.54 1009.59 1009.75 1010.00 1010.03 1009.88 1009.59 1009.26 1009.08 1008.98 1009.06 1008.79 1008.36 1007.77 1007.38 1006.61 1005.89 1005.51 1005.08 1004.61 1004.24 1003.83 1002.49 1001.97 1001.85 1001.35 1001.05 1000.18 1000.02
1018.98 1018.44 1017.82 1017.18 1016.63 1016.21 1015.81 1015.41 1015.06 1014.84 1014.71 1014.57 1014.40 1014.47 1014.05 1012.03 1008.67 1009.14 1009.43 1009.83 1009.51 1009.35 1009.09 1008.93 1008.95 1008.80 1008.92 1009.08 1009.11 1008.35 1007.67 1006.97 1006.17 1005.68 1005.35 1005.25 1004.60 1004.21 1002.71 1002.23 1002.01 1001.73 1001.27 1000.79 1000.22
1018.76 1018.23 1017.62 1016.97 1016.35 1015.86 1015.47 1015.14 1014.80 1014.53 1014.36 1014.19 1014.16 1014.21 1013.18 1010.51 1008.73 1009.32 1008.97 1008.77 1008.78 1008.66 1008.60 1008.50 1008.66 1009.22 1009.41 1009.46 1008.88 1008.77 1008.35 1007.39 1006.55 1005.98 1005.59 1005.32 1005.01 1004.37 1003.36 1002.79 1002.15 1001.85 1001.39 1001.04 1000.54
1018.52 1017.92 1017.30 1016.60 1015.99 1015.50 1015.09 1014.75 1014.38 1014.10 1013.90 1013.67 1013.93 1013.80 1011.95 1008.59 1008.16 1008.10 1008.20 1008.17 1008.13 1007.93 1008.11 1008.10 1008.32 1009.05 1009.63 1009.66 1009.41 1009.34 1008.73 1008.07 1006.69 1006.28 1005.62 1005.62 1005.09 1004.53 1003.62 1002.77 1002.48 1002.04 1001.44 1001.20 1000.38
1018.33 1017.70 1017.05 1016.26 1015.62 1015.10 1014.66 1014.30 1013.99 1013.70 1013.66 1013.76 1013.91 1013.32 1010.48 1007.98 1008.18 1007.45 1007.53 1007.62 1007.82 1007.69 1007.70 1007.65 1008.01 1008.88 1009.64 1009.95 1009.87 1009.41 1008.90 1008.03 1006.45 1005.72 1005.21 1004.92 1004.62 1004.10 1003.48 1003.17 1002.24 1002.05 1001.52 1001.30 1000.71
1017.99 1017.34 1016.69 1016.02 1015.39 1014.89 1014.31 1013.53 1013.40 1013.50 1013.34 1013.26 1012.74 1012.74 1009.64 1007.77 1007.13 1007.03 1007.14 1007.51 1007.66 1007.86 1007.97 1007.83 1008.01 1008.79 1009.55 1010.07 1009.95 1009.28 1008.83 1008.09 1006.51 1005.29 1004.60 1004.53 1004.49 1003.87 1003.32 1003.04 1002.10 1001.57 1001.28 1001.18 1000.82
1017.85 1017.09 1016.30 1015.57 1014.92 1014.57 1013.89 1013.16 1013.66 1013.31 1012.51 1011.43 1010.41 1009.42 1007.96 1007.05 1006.78 1006.68 1006.68 1006.99 1007.31 1007.76 1008.17 1007.91 1008.19 1008.59 1009.12 1009.35 1009.20 1009.56 1008.93 1007.98 1006.28 1005.05 1004.67 1004.42 1004.50 1003.87 1003.28 1002.97 1002.67 1001.64 1000.97 1000.85 1000.60
1017.67 1016.78 1015.97 1015.09 1014.46 1014.22 1014.25 1013.12 1011.27 1010.96 1009.93 1009.28 1008.39 1007.89 1007.09 1006.83 1006.84 1006.54 1006.32 1006.82 1007.10 1007.58 1007.61 1007.66 1007.39 1007.45 1007.70 1008.26 1008.94 1008.33 1008.47 1007.34 1006.24 1005.02 1004.64 1004.13 1003.95 1003.72 1003.39 1002.69 1002.18 1001.78 1001.09 1000.38 1000.52
1017.46 1016.59 1015.64 1014.67 1013.85 1013.62 1013.00 1011.56 1009.94 1010.13 1010.28 1008.09 1006.76 1006.58 1006.34 1006.69 1006.39 1006.04 1005.91 1006.04 1006.73 1007.21 1007.59 1007.51 1007.12 1006.80 1006.55 1006.84 1007.42 1007.30 1007.29 1006.74 1006.09 1005.22 1004.42 1004.73 1003.96 1003.48 1002.67 1002.12 1001.46 1001.14 1001.01 1000.52 999.87
1017.16 1016.17 1015.44 1014.43 1013.59 1012.52 1011.40 1010.05 1009.74 1009.99 1009.95 1007.26 1006.24 1005.74 1005.84 1005.85 1005.91 1005.00 1004.88 1005.60 1006.21 1006.91 1007.30 1007.05 1006.72 1006.67 1006.40 1006.33 1006.28 1006.24 1006.29 1005.91 1005.86 1006.00 1005.33 1005.64 1004.39 1003.48 1002.81 1002.29 1001.54 1000.88 1000.57 1000.16 999.90
1016.82 1015.94 1015.10 1015.16 1014.32 1012.60 1010.72 1009.77 1009.78 1010.15 1009.33 1006.16 1005.58 1005.37 1005.40 1005.91 1005.07 1004.45 1004.78 1005.52 1006.31 1006.97 1007.40 1006.56 1006.81 1006.57 1006.02 1005.82 1005.95 1005.57 1005.92 1006.17 1006.38 1006.29 1005.86 1005.42 1005.75 1000.79 1002.91 1001.86 1000.90 1000.19 999.84 999.34 999.07
1016.53 1015.59 1015.09 1013.41 1013.92 1011.37 1010.21 1009.89 1010.07 1010.60 1008.80 1006.99 1006.70 1006.34 1006.19 1005.90 1005.41 1005.37 1005.39 1005.56 1005.88 1006.67 1007.24 1006.78 1006.40 1005.90 1005.10 1005.05 1005.12 1005.23 1005.61 1006.00 1006.54 1006.93 1006.09 1004.58 1005.63 1000.52 1002.12 1001.12 1000.11 999.54 998.99 998.55 998.07
1015.96 1014.72 1014.98 1013.72 1012.27 1010.55 1010.15 1010.16 1010.67 1010.08 1008.65 1008.02 1007.77 1007.65 1007.03 1006.81 1006.82 1006.53 1006.77 1007.19 1007.71 1007.56 1007.48 1007.18 1006.25 1005.13 1004.86 1004.14 1004.82 1005.53 1006.66 1007.49 1007.48 1007.41 1005.23 1005.21 1004.83 1001.48 1001.35 1000.36 999.30 998.68 998.03 997.59 997.28
1015.43 1013.80 1012.89 1012.21 1011.23 1010.83 1010.69 1011.04 1010.65 1009.54 1009.26 1009.09 1008.94 1008.12 1007.76 1008.15 1007.90 1007.96 1008.24 1008.32 1008.24 1008.58 1008.52 1007.97 1007.03 1005.77 1005.76 1005.71 1006.28 1006.57 1006.67 1007.79 1007.43 1006.71 1005.73 1005.09 1003.77 1000.66 999.98 998.82 998.52 997.92 997.00 996.53 996.41
1014.96 1013.07 1012.32 1011.03 1010.87 1010.68 1011.41 1011.04 1010.38 1009.89 1009.74 1009.54 1009.38 1008.93 1008.86 1008.86 1008.95 1009.05 1009.40 1009.27 1009.78 1010.11 1010.51 1009.71 1008.29 1007.10 1006.31 1005.84 1006.24 1005.97 1006.97 1007.34 1007.30 1007.01 1006.40 1004.44 1001.91 1000.07 999.43 998.89 998.14 996.52 995.99 995.79 995.53
1015.70 1013.63 1011.65 1010.12 1009.88 1010.72 1011.68 1011.16 1010.48 1010.18 1009.97 1009.93 1009.97 1010.03 1009.72 1009.64 1009.86 1010.09 1010.09 1009.90 1010.61 1010.96 1011.50 1011.28 1009.71 1008.34 1007.03 1006.31 1005.49 1005.64 1006.73 1007.56 1007.70 1007.04 1005.38 1003.38 1001.55 1000.14 999.72 998.83 997.90 996.70 995.72 995.29 994.89
1015.49 1013.49 1010.65 1009.75 1009.67 1011.10 1011.78 1011.25 1010.37 1009.86 1009.65 1009.79 1009.93 1010.24 1010.39 1010.23 1010.42 1010.53 1010.43 1010.03 1011.04 1011.51 1011.98 1011.84 1011.38 1009.08 1008.49 1006.63 1005.67 1005.97 1006.61 1007.11 1007.06 1007.02 1005.80 1003.78 1001.70 999.95 999.63 999.05 998.90 997.38 996.04 995.65 995.48
1016.38 1013.79 1010.69 1009.92 1010.97 1011.50 1012.05 1011.39 1010.61 1009.66 1009.36 1009.33 1009.80 1010.22 1010.47 1010.46 1010.62 1010.79 1010.43 1010.48 1010.88 1011.22 1011.98 1011.93 1011.55 1009.92 1008.14 1005.95 1005.96 1005.91 1006.02 1006.39 1006.75 1006.03 1004.92 1004.35 1001.57 999.98 999.88 999.40 998.44 997.79 995.85 995.63 996.56
1017.66 1014.24 1010.96 1011.01 1012.47 1012.80 1012.44 1011.80 1010.77 1009.95 1009.43 1009.47 1009.97 1010.17 1010.23 1010.43 1010.83 1010.88 1010.47 1010.26 1010.37 1010.71 1011.93 1012.19 1011.54 1010.21 1007.91 1006.67 1006.24 1005.91 1005.93 1006.28 1006.29 1005.65 1004.45 1004.01 1001.15 999.81 999.37 998.93 998.39 997.95 996.04 996.12 996.39
1018.36 1015.45 1013.55 1013.16 1013.79 1013.91 1013.18 1012.19 1011.03 1010.09 1009.96 1009.84 1010.06 1010.02 1010.12 1010.35 1010.48 1010.23 1009.89 1009.86 1010.38 1010.77 1011.00 1011.40 1011.63 1010.98 1009.60 1007.70 1006.76 1006.13 1005.65 1005.52 1005.83 1005.12 1003.80 1002.90 1000.82 999.69 999.58 999.00 998.47 998.06 997.74 997.75 997.37
1018.08 1016.95 1016.30 1015.28 1014.86 1014.77 1013.63 1012.40 1011.33 1010.59 1010.45 1010.20 1010.12 1010.26 1010.16 1010.21 1009.86 1009.80 1009.78 1009.48 1009.66 1009.41 1010.40 1011.28 1011.16 1010.52 1008.89 1007.29 1006.45 1005.55 1004.78 1004.50 1004.26 1004.02 1003.66 1002.10 1000.55 998.63 999.45 998.53 998.86 998.34 998.80 999.38 996.60
1018.88 1018.08 1017.13 1016.31 1015.27 1014.47 1013.34 1012.57 1011.82 1011.13 1011.06 1010.33 1010.22 1009.99 1010.16 1010.59 1010.51 1009.01 1009.28 1009.11 1009.08 1009.16 1010.20 1011.09 1010.81 1010.10 1008.13 1006.10 1005.09 1004.72 1003.90 1003.69 1002.79 1002.60 1002.41 1001.66 999.84 997.91 998.84 998.59 997.92 998.43 998.97 998.19 996.78
1019.36 1018.66 1017.95 1016.49 1015.58 1014.72 1013.86 1013.14 1012.25 1011.78 1011.13 1010.71 1010.17 1010.23 1010.27 1010.09 1009.71 1008.83 1008.28 1007.96 1008.40 1009.04 1010.15 1010.97 1011.03 1010.25 1007.57 1005.82 1004.66 1004.70 1005.00 1003.90 1002.94 1002.09 1002.16 1001.78 999.84 998.61 999.07 999.19 999.17 998.14 997.35 997.39 996.93
Wind_Speed
21 21 21 21 20 19 19 18 17 16 15 15 15 15 15 16 18 7 6 3 5 3 6 7 11 13 9 7 8 6 9 11 12 14 12 16 15 16 12 9 17 10 5 12 11
22 22 21 21 21 20 20 19 19 17 16 15 15 15 16 16 7 9 6 8 6 6 5 9 9 4 4 7 5 6 6 9 8 11 12 15 15 17 16 18 17 18 5 15 12
22 22 22 21 21 20 20 19 19 18 16 16 16 17 17 15 6 2 14 9 6 2 4 9 12 7 6 7 7 9 13 12 15 18 17 18 20 16 13 16 10 18 23 8 12
22 22 22 22 21 20 20 19 18 17 16 16 16 17 18 4 3 4 9 7 5 2 4 8 7 6 5 7 9 5 12 15 13 14 13 13 12 18 11 18 14 19 20 19 9
21 22 22 22 21 20 19 18 17 16 15 15 15 14 10 4 9 7 12 7 5 4 6 7 9 7 7 8 12 8 11 14 10 9 8 11 12 13 21 20 16 21 20 19 8
20 21 22 22 21 19 18 16 15 16 15 14 13 9 4 5 2 14 11 7 9 8 8 7 6 9 7 8 8 9 15 18 11 11 8 9 13 7 21 18 17 18 18 17 13
22 22 22 23 22 20 17 15 14 15 14 12 9 5 5 15 4 9 11 10 9 8 5 7 8 8 10 9 7 13 14 15 14 9 9 9 14 18 16 14 16 18 18 18 15
23 23 23 24 23 21 18 15 16 15 12 6 2 4 8 8 7 7 10 9 9 10 8 6 7 2 4 8 11 13 12 8 12 9 14 9 13 16 17 20 17 16 18 17 16
24 24 23 25 23 22 19 16 16 14 8 2 4 4 9 1 6 7 4 4 8 6 7 12 4 4 6 7 8 7 12 13 19 15 17 9 13 16 18 17 19 16 16 15 17
25 25 24 24 23 21 19 17 6 8 4 7 8 3 7 7 2 7 7 8 6 7 11 14 5 4 5 3 9 13 7 12 17 13 5 7 7 12 8 17 22 19 16 13 17
27 26 25 24 22 16 10 3 2 2 5 8 13 15 15 7 7 5 6 7 9 9 11 14 9 8 14 15 19 9 19 20 21 17 4 7 7 10 14 14 10 18 17 15 15
27 27 26 25 21 16 2 3 6 6 10 12 17 17 14 2 7 10 7 9 6 9 13 11 11 11 17 15 12 19 18 24 22 15 14 12 15 14 17 16 13 8 12 17 15
27 27 27 25 24 3 5 10 5 9 3 10 7 3 1 1 6 12 12 6 7 9 11 11 13 17 16 13 18 16 16 15 18 15 16 12 14 11 12 12 17 16 11 11 17
27 27 26 28 3 5 2 7 6 4 2 7 7 5 5 8 8 19 16 6 3 8 10 11 9 16 15 16 7 14 13 19 17 15 13 3 16 16 11 14 13 15 16 14 14
26 27 26 9 7 5 9 6 4 4 6 5 5 8 6 5 10 6 4 2 5 11 8 14 12 15 19 19 16 20 16 9 13 12 12 9 6 29 5 15 20 17 17 19 17
28 27 22 2 4 11 9 8 2 2 4 6 12 14 17 17 11 12 8 5 5 6 9 17 16 17 16 18 17 18 18 11 12 7 12 9 8 27 13 17 16 16 16 18 18
32 29 13 6 5 10 6 5 2 1 13 12 18 19 17 11 12 11 12 10 9 11 8 15 15 18 14 17 14 10 5 3 3 3 13 2 8 17 9 19 20 18 20 16 20
34 30 7 7 7 8 4 4 3 13 12 15 16 20 6 11 12 10 14 11 11 12 7 3 7 11 16 8 2 14 3 5 6 5 4 2 9 13 16 23 21 24 19 21 21
29 4 3 6 11 1 4 2 3 10 13 13 14 11 12 19 11 11 12 8 7 11 5 6 5 21 19 15 7 2 3 4 7 9 9 9 16 17 6 7 18 16 20 18 13
7 4 5 6 3 3 2 6 6 10 10 11 11 11 16 16 11 9 6 8 5 12 9 4 13 9 16 12 9 10 5 4 3 6 6 6 8 3 6 6 12 15 11 9 15
1 4 2 8 2 2 0 5 12 11 10 4 11 10 13 10 12 11 6 10 8 9 7 5 6 8 10 7 12 5 6 6 8 8 5 3 5 1 6 7 9 15 9 5 16
6 4 3 5 5 1 4 11 16 10 10 6 5 6 9 9 6 7 5 5 9 5 8 2 4 7 11 23 14 17 16 13 6 5 1 1 9 12 4 7 8 16 4 6 17
7 5 3 6 5 4 7 12 16 13 10 7 7 9 15 2 4 7 11 7 8 3 2 3 4 6 6 4 2 4 2 10 9 11 13 9 8 4 9 9 7 11 12 10 15
4 5 5 5 7 8 11 15 15 8 10 11 12 10 10 9 7 8 17 4 3 7 18 13 2 7 9 18 14 19 17 15 6 5 4 7 17 11 7 10 7 7 7 10 21
2 3 4 6 8 14 14 13 14 14 7 9 6 12 12 10 13 12 10 17 14 18 4 6 6 8 18 23 21 23 23 20 17 13 10 14 18 18 6 11 2 2 9 11 17
4 4 4 12 10 13 10 10 13 16 15 9 10 13 8 9 7 25 22 15 10 7 8 5 4 5 17 20 14 18 18 17 19 16 14 18 21 18 5 7 8 10 2 7 12
4 5 3 6 9 9 7 14 19 15 6 16 10 9 14 11 18 20 19 21 16 5 3 3 2 3 9 12 20 2 12 11 14 10 11 11 17 14 3 5 7 9 10 7 6
Wind_Direction
352 350 347 345 343 340 337 334 329 325 322 321 321 323 324 322 309 278 241 225 167 7 327 280 272 243 237 259 248 257 247 250 256 264 280 291 299 300 317 316 318 263 222 143 137
347 346 344 342 340 338 335 333 328 325 322 323 324 325 326 328 288 244 193 141 127 48 330 325 316 269 228 214 244 219 257 251 260 270 278 289 298 309 333 327 325 342 150 139 129
343 341 340 339 337 335 334 330 326 322 322 323 324 324 327 323 297 13 142 150 120 74 276 293 293 297 291 280 249 240 243 259 272 280 283 292 303 307 319 304 320 327 316 149 140
339 337 336 336 334 333 332 328 323 318 318 318 320 323 319 273 344 131 160 137 107 357 276 267 284 269 258 264 271 274 246 241 248 251 277 286 304 298 300 290 311 311 315 292 158
337 335 334 333 331 331 329 324 318 315 313 311 312 325 333 267 243 134 149 156 192 226 267 300 317 320 319 321 335 329 315 315 302 300 277 292 285 291 292 296 308 306 315 312 323
333 332 332 331 330 328 326 321 313 308 307 305 303 316 243 261 163 150 163 173 248 210 263 276 299 317 322 309 307 294 295 296 302 306 302 306 304 302 285 294 295 298 304 308 322
332 333 332 332 329 327 323 316 309 306 305 300 290 258 267 252 131 180 205 190 220 243 285 330 338 7 335 318 287 318 313 303 288 263 275 287 287 279 284 291 292 289 294 299 304
333 333 333 332 329 326 323 317 308 303 305 293 224 230 255 250 270 275 218 208 230 246 230 247 220 288 278 280 295 291 286 288 282 281 266 223 257 260 273 283 281 282 281 289 297
333 333 333 331 328 325 320 307 298 297 299 149 166 254 265 43 224 236 290 228 269 311 296 260 176 191 302 286 292 252 253 250 270 242 244 223 255 248 247 257 270 270 272 272 287
332 333 333 330 328 327 319 290 269 314 212 203 257 257 260 308 250 190 189 228 273 298 292 282 220 195 256 246 255 271 301 300 275 273 272 285 290 293 306 236 248 254 258 260 264
332 333 333 331 327 330 338 48 336 25 240 235 268 269 284 316 312 260 247 245 224 236 255 257 260 212 248 253 259 298 308 287 289 292 242 238 279 281 286 294 288 252 248 248 249
332 333 332 329 324 326 275 255 21 249 306 278 268 252 259 221 280 279 240 235 237 249 254 276 254 235 242 251 271 279 240 265 280 281 287 296 239 259 268 263 268 249 261 252 245
333 333 331 327 318 285 214 274 328 39 298 289 243 248 245 92 267 267 262 217 239 263 289 289 286 288 286 227 243 255 259 278 274 284 288 305 288 252 253 243 266 265 259 258 237
333 332 332 329 332 317 266 315 34 42 286 253 200 217 227 201 242 248 249 211 280 305 294 266 313 320 307 292 282 278 272 263 270 304 279 71 285 275 255 276 271 264 253 250 250
330 330 330 331 303 311 297 350 53 50 19 47 92 147 240 222 274 322 136 125 247 265 278 276 287 285 280 279 273 274 281 305 288 271 291 241 258 269 230 249 246 250 248 243 241
328 325 332 27 201 244 292 326 18 22 259 40 11 351 343 316 350 340 352 349 302 333 296 291 295 270 261 270 269 265 265 247 263 266 262 267 244 270 250 253 259 254 249 245 244
328 318 317 297 256 314 352 334 356 196 356 1 350 336 303 345 345 358 6 357 338 316 314 301 288 273 295 266 250 305 66 297 270 212 250 272 244 261 279 269 257 248 249 248 242
328 315 223 227 268 300 356 348 264 356 349 360 342 313 15 10 336 17 1 330 334 347 316 261 332 22 354 5 314 311 194 226 254 212 264 331 233 250 233 251 260 248 249 240 256
321 313 247 243 233 30 20 308 331 347 4 343 333 355 345 334 1 8 354 307 8 19 352 331 269 334 324 315 234 235 293 209 274 248 263 237 262 282 310 291 308 242 243 227 256
317 286 264 275 136 55 24 269 4 19 341 347 333 321 325 321 346 344 354 286 352 25 15 326 291 278 299 322 288 208 269 263 212 275 222 240 269 201 288 343 342 321 270 236 256
244 312 218 268 122 32 186 325 337 324 312 299 320 309 306 325 327 327 289 292 61 348 346 268 223 292 307 246 263 257 229 256 261 237 268 297 253 112 330 354 313 316 254 295 300
327 319 309 14 27 25 339 325 308 349 317 316 347 324 310 312 322 306 275 308 158 183 289 314 275 276 261 271 275 265 275 253 256 245 209 224 253 240 268 314 346 328 281 22 331
317 272 297 33 29 344 319 325 308 314 342 357 327 316 311 1 314 275 296 281 354 84 190 210 231 285 288 18 197 112 264 290 297 247 254 265 264 1 3 337 349 327 356 351 337
302 320 349 341 19 350 323 306 305 347 340 342 310 315 322 313 286 274 297 310 236 246 262 250 242 226 267 271 292 292 286 278 218 268 302 266 283 295 307 291 330 358 31 341 288
248 348 337 305 328 302 296 290 334 334 333 332 326 305 313 323 308 286 306 297 292 282 129 180 251 225 255 266 269 267 272 268 258 246 253 285 286 286 250 275 354 337 50 312 300
355 348 340 293 279 299 313 352 316 338 338 311 305 329 335 317 319 316 312 301 285 259 159 166 259 289 282 283 269 276 279 278 263 249 247 263 274 278 260 236 351 22 181 311 347
354 326 269 282 302 311 327 325 320 334 310 305 348 349 329 325 307 287 279 276 255 183 142 160 234 271 275 313 307 164 352 351 342 290 307 266 266 291 76 24 22 344 336 353 348